Regional Weather Roundup
Issued by NWS

Home | Current Version | Previous Version | Graphics & Text | Print | Product List | Glossary On
Versions: 1 2 3 4 5 6 7 8 9 10 11 12 13 14 15 16 17 18 19 20 21 22 23 24 25 26 27
000
ASUS45 KPSR 170410
RWRAZ

ARIZONA HOURLY REGIONAL WEATHER ROUNDUP
NATIONAL WEATHER SERVICE PHOENIX AZ
900 PM MST THU NOV 16 2017

NOTE: FAIR INDICATES FEW OR NO CLOUDS BELOW 12,000 FEET WITH NO
SIGNIFICANT WEATHER AND/OR OBSTRUCTIONS TO VISIBILITY.

AZZ001>003-036-170500-
NORTHWEST ARIZONA

CITY           SKY/WX    TMP DP  RH WIND       PRES   REMARKS
BULLHEAD CITY  CLOUDY    72  32  23 CALM      29.88S
KINGMAN        CLOUDY    68  35  29 S13       30.00R
$$

AZZ004>008-015-016-018-170500-
NORTH CENTRAL ARIZONA

CITY           SKY/WX    TMP DP  RH WIND       PRES   REMARKS
GRAND CANYON   CLOUDY    53  29  39 S12       30.13S
WILLIAMS       CLOUDY    54  27  35 SW14G22   30.15S
PRESCOTT       PTCLDY    60  27  28 S7        30.10S
FLAGSTAFF      CLOUDY    48  22  35 SW7       30.17S
PAYSON         MOCLDY    61  19  20 CALM      30.15R
PAGE           CLOUDY    56  28  34 S3        29.94S
$$

AZZ009>014-017-170500-
NORTHEAST ARIZONA

CITY           SKY/WX    TMP DP  RH WIND       PRES   REMARKS
WINSLOW        MOCLDY    58  24  27 S5        30.09R
SAINT JOHNS    MOCLDY    57  19  22 SW7       30.13R
WINDOW ROCK    CLOUDY    56  23  27 SW8       30.14R
SHOW LOW       MOCLDY    54  19  26 S10       30.20R
$$

AZZ540-542>544-546-548-170500-
GREATER PHOENIX AREA

CITY           SKY/WX    TMP DP  RH WIND       PRES   REMARKS
PHOENIX        PTCLDY    72  35  25 CALM      29.92S
BUCKEYE        PTCLDY    64  21  19 NE6       29.93S
LUKE AFB       PTCLDY    65  42  43 N6        29.92R HAZE
DEER VALLEY    PTCLDY    66  24  20 CALM      29.94S
SCOTTSDALE     PTCLDY    69  33  26 NE6       29.96S
MESA-GATEWAY   PTCLDY    64  27  24 VRB5      29.96R
CHANDLER       CLEAR     66  36  32 CALM      29.94R
$$

AZZ539-553-170500-
SOUTHWEST MARICOPA COUNTY AND PINAL COUNTY

CITY           SKY/WX    TMP DP  RH WIND       PRES   REMARKS
CASA GRANDE    NOT AVBL
GILA BEND      CLEAR     70  21  16 S5        29.92S
$$

AZZ503-504-507>509-170500-
SOUTHEAST ARIZONA

CITY           SKY/WX    TMP DP  RH WIND       PRES   REMARKS
TUCSON         CLEAR     68  25  19 S3        30.04R
DAVIS-MONTHAN  CLEAR     64  23  21 S7        30.02R
NOGALES        CLEAR     60  20  21 E8        30.11R
SIERRA VISTA   CLEAR     67  16  14 N7        30.15R
DOUGLAS        CLEAR     59  18  20 CALM      30.11R
SAFFORD        CLEAR     61  20  20 SE3       30.02R
$$

AZZ532-170500-
SOUTHWEST ARIZONA

CITY           SKY/WX    TMP DP  RH WIND       PRES   REMARKS
YUMA           PTCLDY    72  46  39 CALM      29.90R
$$

CAZ041-043-047-048-061-525>527-560>570-170500-
SOUTHERN CALIFORNIA

CITY           SKY/WX    TMP DP  RH WIND       PRES   REMARKS
DOWNTOWN L.A.  CLOUDY    69  54  58 CALM      29.96S
L.A. AIRPORT   CLOUDY    71  54  54 NW3       29.97S
SAN DIEGO      CLOUDY    68  57  68 N6        30.00R
BURBANK        CLOUDY    68  52  56 W6        29.99R
ONTARIO        CLOUDY    70  45  40 S5        29.98S
RIVERSIDE      CLOUDY    70  48  45 CALM      29.98S
PALM SPRINGS   MOCLDY    72  50  45 CALM      29.92R
EL CENTRO NAS  MOCLDY    70  44  39 NW3       29.91R
IMPERIAL       PTCLDY    71  49  45 NW7       29.89R
BLYTHE         MOCLDY    71  39  31 CALM      29.90R
NEEDLES        CLOUDY    78  32  18 SW9       29.90R
$$

NVZ020-UTZ003-170500-
SOUTHERN NEVADA-UTAH

CITY           SKY/WX    TMP DP  RH WIND       PRES   REMARKS
LAS VEGAS      CLOUDY    73  42  32 SW14G23   29.85S
SALT LAKE CITY CLOUDY    55  42  61 N12       29.74S
$$

NMZ009-TXZ055-170500-
NEW MEXICO-WEST TEXAS

CITY           SKY/WX    TMP DP  RH WIND       PRES   REMARKS
ALBUQUERQUE    MOCLDY    58  22  24 SE8       30.08S
EL PASO        CLEAR     66  31  27 SE7       30.06S
$$


........................KEY........................
SKY/WX - SKY CONDITION/WEATHER
TMP    - TEMPERATURE IN FAHRENHEIT
DP     - DEW POINT IN FAHRENHEIT
RH     - RELATIVE HUMIDITY IN PERCENT
WIND   - DIRECTION AND SPEED IN MILES PER HOUR (MPH)
VRB    - VARIABLE WIND DIRECTION
PRES   - MEAN SEA LEVEL PRESSURE IN INCHES OF MERCURY
         F - FALLING PRESSURE   R - RISING PRESSURE
         S - STEADY PRESSURE
VSB    - VISIBILITY IN MILES
HX     - HEAT INDEX IN FAHRENHEIT
WCI    - WIND CHILL INDEX IN FAHRENHEIT
TC     - TEMPERATURE IN CELSIUS WHICH IS ALSO KNOWN AS
         TEMPERATURE IN CENTIGRADE
AFB    - AIR FORCE BASE
         LUKE AFB IS LUKE AIR FORCE BASE
         DAVIS-MONTHAN IS DAVIS-MONTHAN AIR FORCE BASE
NAS    - NAVAL AIR STATION
         EL CENTRO NAS IS EL CENTRO NAVAL AIR STATION
N/A    - NOT AVAILABLE





USA.gov is the U.S. government's official web portal to all federal, state and local government web resources and services.